QPF
0.00 0.00 0.00 0.00 0.03 0.04 0.02 0.00 0.00 0.05 0.05 0.01 0.00 0.00 0.00 0.01 0.03 0.01 0.01 0.00 0.00 0.00 0.00 0.00 0.00 0.01 0.00 0.00 0.00 0.00 0.02 0.01 0.00
0.00 0.00 0.00 0.02 0.03 0.03 0.04 0.02 0.07 0.13 0.11 0.07 0.01 0.00 0.00 0.00 0.01 0.01 0.02 0.00 0.00 0.01 0.01 0.01 0.01 0.00 0.01 0.00 0.01 0.00 0.00 0.02 0.00
0.00 0.00 0.00 0.00 0.01 0.04 0.01 0.01 0.04 0.17 0.22 0.15 0.08 0.06 0.00 0.00 0.01 0.02 0.00 0.00 0.02 0.02 0.03 0.00 0.00 0.00 0.00 0.00 0.00 0.00 0.00 0.00 0.00
0.00 0.00 0.00 0.00 0.00 0.03 0.06 0.02 0.02 0.02 0.14 0.27 0.37 0.26 0.17 0.07 0.01 0.01 0.02 0.03 0.02 0.02 0.01 0.00 0.00 0.00 0.00 0.00 0.00 0.00 0.00 0.00 0.00
0.00 0.00 0.00 0.00 0.00 0.02 0.04 0.03 0.01 0.01 0.07 0.14 0.25 0.26 0.10 0.08 0.09 0.04 0.01 0.02 0.07 0.03 0.00 0.01 0.02 0.02 0.00 0.00 0.00 0.00 0.01 0.00 0.00
0.00 0.00 0.00 0.01 0.03 0.03 0.02 0.04 0.02 0.03 0.06 0.26 0.22 0.21 0.16 0.06 0.05 0.05 0.00 0.00 0.01 0.02 0.00 0.00 0.02 0.01 0.00 0.00 0.00 0.00 0.00 0.00 0.00
0.00 0.00 0.00 0.00 0.02 0.01 0.00 0.03 0.04 0.04 0.06 0.08 0.10 0.09 0.06 0.05 0.05 0.06 0.04 0.01 0.00 0.00 0.00 0.00 0.00 0.00 0.00 0.00 0.00 0.00 0.00 0.00 0.00
0.00 0.00 0.00 0.00 0.00 0.00 0.00 0.00 0.00 0.02 0.04 0.07 0.06 0.01 0.01 0.03 0.03 0.03 0.05 0.05 0.04 0.02 0.01 0.01 0.00 0.00 0.00 0.00 0.00 0.00 0.00 0.00 0.00
0.00 0.00 0.00 0.00 0.00 0.00 0.00 0.00 0.00 0.00 0.00 0.01 0.04 0.06 0.04 0.01 0.01 0.06 0.03 0.02 0.03 0.08 0.05 0.04 0.04 0.01 0.00 0.00 0.00 0.00 0.00 0.00 0.00
0.00 0.00 0.00 0.00 0.00 0.00 0.00 0.00 0.00 0.00 0.00 0.00 0.00 0.02 0.16 0.22 0.08 0.07 0.02 0.01 0.04 0.09 0.12 0.05 0.04 0.01 0.00 0.00 0.00 0.00 0.00 0.00 0.00
0.00 0.00 0.00 0.00 0.00 0.00 0.00 0.00 0.00 0.00 0.00 0.00 0.00 0.00 0.02 0.11 0.20 0.14 0.10 0.03 0.02 0.03 0.06 0.08 0.03 0.04 0.04 0.02 0.00 0.00 0.00 0.00 0.00
0.00 0.00 0.00 0.00 0.00 0.00 0.00 0.00 0.00 0.00 0.00 0.00 0.00 0.00 0.00 0.01 0.06 0.13 0.20 0.19 0.14 0.09 0.18 0.21 0.13 0.07 0.10 0.12 0.01 0.08 0.15 0.22 0.05
0.00 0.00 0.00 0.00 0.00 0.00 0.00 0.00 0.00 0.00 0.00 0.00 0.00 0.00 0.01 0.03 0.01 0.00 0.04 0.16 0.27 0.26 0.26 0.27 0.27 0.20 0.16 0.18 0.03 0.10 0.16 0.13 0.09
0.00 0.00 0.00 0.00 0.00 0.00 0.00 0.00 0.00 0.00 0.00 0.00 0.00 0.00 0.00 0.00 0.00 0.00 0.00 0.00 0.04 0.16 0.22 0.22 0.21 0.25 0.19 0.19 0.23 0.17 0.19 0.23 0.28
0.00 0.00 0.00 0.00 0.00 0.00 0.00 0.00 0.00 0.00 0.00 0.00 0.00 0.00 0.00 0.00 0.00 0.00 0.00 0.00 0.00 0.00 0.01 0.03 0.03 0.10 0.10 0.08 0.05 0.08 0.12 0.17 0.20
0.00 0.00 0.00 0.00 0.00 0.00 0.00 0.00 0.00 0.00 0.00 0.00 0.00 0.00 0.00 0.00 0.00 0.00 0.00 0.00 0.00 0.00 0.00 0.00 0.00 0.00 0.00 0.00 0.02 0.03 0.04 0.07 0.09
0.00 0.00 0.00 0.00 0.00 0.00 0.00 0.00 0.00 0.00 0.00 0.00 0.00 0.00 0.00 0.00 0.00 0.00 0.00 0.00 0.00 0.00 0.00 0.00 0.00 0.00 0.00 0.00 0.00 0.00 0.00 0.00 0.02
0.00 0.00 0.00 0.00 0.00 0.00 0.00 0.00 0.00 0.00 0.00 0.00 0.00 0.00 0.01 0.00 0.00 0.00 0.00 0.00 0.00 0.00 0.00 0.00 0.00 0.00 0.00 0.00 0.00 0.00 0.00 0.01 0.01
0.01 0.00 0.00 0.00 0.00 0.00 0.00 0.00 0.00 0.00 0.00 0.00 0.00 0.00 0.00 0.00 0.00 0.00 0.00 0.00 0.00 0.00 0.00 0.00 0.00 0.00 0.00 0.00 0.00 0.00 0.00 0.01 0.03
0.00 0.00 0.00 0.00 0.00 0.00 0.00 0.00 0.00 0.00 0.00 0.00 0.00 0.00 0.00 0.00 0.00 0.00 0.00 0.00 0.00 0.00 0.00 0.01 0.00 0.00 0.00 0.00 0.00 0.00 0.00 0.00 0.01
MSLP
1009.03 1009.65 1010.30 1010.90 1011.21 1012.29 1012.27 1012.76 1013.00 1013.48 1013.81 1014.33 1014.58 1014.89 1015.16 1015.71 1016.27 1016.82 1016.94 1016.59 1016.56 1016.66 1016.79 1016.69 1016.49 1016.72 1016.65 1016.66 1016.75 1016.83 1016.91 1017.04 1017.13
1008.59 1009.01 1009.75 1010.61 1011.41 1011.64 1012.02 1012.05 1012.56 1013.17 1013.58 1013.93 1014.05 1014.37 1014.89 1015.07 1015.51 1016.14 1016.60 1016.55 1016.45 1016.44 1016.48 1016.36 1016.43 1016.34 1016.79 1016.70 1016.60 1016.68 1017.06 1017.17 1016.97
1008.24 1008.71 1009.49 1010.04 1010.50 1011.14 1011.65 1011.64 1012.04 1012.28 1012.85 1013.35 1013.73 1014.24 1014.64 1015.13 1014.87 1015.28 1015.69 1015.95 1016.22 1016.28 1016.47 1016.45 1016.44 1016.25 1016.22 1016.35 1016.53 1016.63 1016.95 1017.01 1016.84
1007.95 1008.53 1009.10 1009.90 1010.62 1011.33 1011.34 1011.70 1012.22 1012.68 1013.07 1013.02 1013.42 1014.24 1014.86 1015.07 1014.96 1014.78 1015.22 1015.42 1015.44 1015.78 1016.11 1016.22 1016.36 1016.11 1016.12 1016.18 1016.35 1016.33 1016.65 1016.74 1016.64
1007.66 1008.56 1009.18 1009.78 1010.47 1011.44 1011.81 1012.25 1012.72 1012.81 1012.60 1012.75 1013.15 1014.08 1014.56 1015.04 1014.77 1014.73 1014.44 1014.80 1015.04 1015.38 1015.83 1015.92 1015.95 1016.13 1016.02 1016.11 1016.16 1016.14 1016.33 1016.44 1016.29
1008.33 1008.81 1009.25 1009.93 1010.56 1011.21 1012.13 1012.63 1012.63 1012.67 1012.39 1012.48 1012.75 1013.13 1013.91 1014.59 1014.67 1014.07 1014.29 1013.80 1014.08 1014.72 1015.22 1015.41 1015.49 1015.78 1015.68 1015.78 1015.85 1016.06 1016.05 1015.97 1015.99
1008.03 1008.50 1008.92 1009.69 1010.34 1010.73 1011.08 1011.78 1012.07 1012.18 1012.34 1012.52 1012.34 1012.70 1012.86 1014.11 1014.24 1013.56 1013.76 1013.72 1013.38 1013.74 1014.19 1014.63 1015.01 1015.08 1015.12 1015.31 1015.44 1015.56 1015.74 1015.79 1015.70
1007.60 1008.29 1009.13 1009.78 1010.32 1010.86 1011.10 1011.45 1011.58 1012.00 1012.27 1012.37 1012.43 1012.77 1013.33 1013.67 1013.74 1012.89 1012.97 1013.46 1013.33 1013.42 1013.84 1014.05 1014.26 1014.62 1014.75 1014.85 1015.01 1015.13 1015.21 1015.32 1015.40
1007.01 1007.97 1008.70 1009.24 1009.84 1010.42 1011.23 1011.52 1011.47 1011.78 1011.84 1012.08 1012.55 1012.82 1013.20 1013.71 1013.33 1013.21 1012.60 1012.80 1012.87 1012.86 1012.89 1013.26 1013.51 1013.63 1013.93 1014.30 1014.45 1014.49 1014.53 1014.59 1014.79
1006.39 1007.40 1008.39 1009.04 1009.79 1010.29 1010.84 1011.13 1011.28 1011.56 1011.61 1011.87 1012.29 1012.58 1012.54 1012.57 1012.42 1012.45 1012.48 1012.70 1012.84 1012.54 1012.47 1012.51 1012.82 1013.07 1013.14 1013.49 1013.72 1013.81 1013.86 1013.92 1014.11
1006.37 1006.99 1008.10 1008.83 1009.72 1010.33 1010.61 1010.77 1011.01 1011.22 1011.37 1011.66 1011.79 1011.83 1011.70 1011.72 1011.47 1011.59 1012.06 1012.28 1012.69 1012.19 1012.11 1012.13 1012.52 1012.36 1012.44 1012.54 1012.65 1013.01 1013.16 1013.21 1013.44
1005.89 1006.81 1007.75 1008.61 1009.37 1010.22 1010.55 1010.64 1010.82 1011.15 1011.40 1011.43 1011.46 1011.48 1011.53 1011.39 1011.39 1011.77 1012.04 1011.21 1011.81 1011.58 1011.67 1011.85 1011.66 1011.63 1011.93 1012.12 1011.99 1012.18 1012.35 1012.65 1013.04
1006.13 1006.76 1007.49 1008.31 1009.09 1009.90 1010.50 1010.65 1010.75 1011.15 1011.31 1011.33 1011.37 1011.29 1011.31 1011.53 1011.69 1012.02 1012.09 1011.99 1011.84 1011.59 1011.33 1011.62 1011.60 1011.51 1011.40 1011.58 1011.73 1011.86 1011.74 1012.09 1012.33
1005.78 1006.74 1007.61 1008.21 1008.87 1009.56 1010.12 1010.69 1010.96 1011.32 1011.41 1011.45 1011.34 1011.21 1011.40 1011.72 1011.90 1012.14 1012.03 1011.90 1011.79 1011.70 1011.51 1010.87 1011.30 1011.68 1011.57 1011.69 1011.89 1011.62 1011.59 1011.91 1011.88
1006.10 1006.91 1007.73 1008.35 1009.16 1009.81 1010.08 1010.40 1010.99 1011.61 1011.55 1011.46 1011.29 1011.50 1011.86 1012.10 1012.12 1012.08 1011.98 1011.99 1011.90 1011.91 1011.87 1011.64 1011.53 1011.70 1011.76 1011.74 1011.69 1011.65 1011.63 1011.53 1011.10
1006.34 1007.03 1007.87 1008.47 1009.11 1010.03 1010.37 1010.31 1010.72 1011.55 1011.65 1011.51 1011.51 1011.67 1011.97 1012.26 1012.11 1012.40 1012.49 1012.41 1012.37 1012.35 1012.24 1012.14 1012.05 1011.97 1012.06 1012.07 1012.00 1012.01 1011.91 1011.60 1011.57
1006.41 1007.14 1007.97 1008.46 1009.22 1010.09 1010.68 1010.67 1010.65 1010.85 1011.17 1011.00 1011.23 1011.59 1011.94 1012.25 1012.52 1012.80 1013.09 1013.13 1013.17 1013.21 1013.08 1012.87 1012.73 1012.56 1012.50 1012.44 1012.21 1012.06 1011.91 1011.70 1011.67
1006.44 1006.94 1007.61 1008.24 1008.91 1009.75 1010.37 1010.68 1010.89 1010.85 1010.91 1011.26 1011.67 1011.76 1011.93 1012.27 1012.78 1013.18 1013.52 1014.05 1014.29 1014.01 1013.83 1013.75 1013.37 1013.04 1012.95 1012.96 1012.70 1012.47 1012.22 1011.93 1011.90
1006.29 1006.83 1007.44 1008.12 1008.57 1009.23 1010.01 1010.43 1010.57 1010.73 1010.80 1011.01 1011.51 1011.97 1012.16 1012.46 1012.83 1013.15 1013.60 1013.83 1014.12 1014.12 1014.00 1013.68 1013.36 1013.08 1013.09 1013.15 1012.79 1012.68 1012.68 1012.19 1012.18
1005.90 1006.56 1007.18 1007.74 1008.14 1008.59 1009.35 1009.88 1010.24 1010.59 1010.64 1010.88 1011.31 1011.75 1012.19 1012.56 1012.97 1013.32 1013.54 1013.72 1013.95 1014.20 1014.32 1013.94 1013.83 1013.87 1013.73 1013.72 1013.63 1013.29 1012.98 1012.95 1012.66
Thickness
5781 5775 5773 5774 5774 5765 5768 5768 5768 5766 5767 5763 5764 5759 5757 5755 5753 5751 5752 5761 5764 5766 5767 5772 5776 5777 5777 5779 5778 5777 5778 5780 5781
5781 5779 5779 5771 5769 5772 5767 5772 5769 5767 5766 5764 5767 5764 5756 5758 5756 5755 5753 5757 5763 5766 5769 5773 5773 5775 5774 5776 5777 5777 5775 5775 5780
5779 5779 5778 5777 5775 5771 5769 5774 5772 5774 5770 5766 5768 5765 5756 5750 5758 5759 5761 5761 5760 5763 5763 5767 5768 5773 5776 5777 5775 5775 5774 5774 5779
5780 5779 5776 5772 5769 5768 5772 5773 5769 5766 5765 5767 5766 5761 5755 5753 5752 5756 5757 5760 5764 5764 5762 5762 5765 5771 5772 5773 5774 5775 5773 5774 5777
5781 5775 5772 5769 5766 5762 5760 5758 5756 5759 5766 5766 5763 5758 5754 5753 5756 5759 5762 5760 5762 5763 5761 5762 5765 5766 5768 5769 5771 5773 5771 5773 5777
5772 5771 5770 5767 5764 5757 5751 5750 5753 5755 5763 5761 5761 5759 5754 5751 5754 5762 5763 5769 5770 5764 5763 5763 5766 5764 5767 5769 5769 5768 5770 5774 5775
5773 5771 5772 5768 5764 5762 5762 5756 5755 5755 5755 5755 5756 5745 5755 5750 5752 5763 5762 5769 5776 5773 5769 5766 5764 5766 5767 5767 5768 5770 5770 5771 5773
5776 5769 5764 5763 5761 5758 5758 5755 5756 5753 5751 5752 5750 5747 5744 5749 5750 5761 5765 5764 5770 5772 5767 5765 5766 5764 5765 5768 5769 5771 5772 5772 5771
5778 5772 5767 5762 5762 5758 5751 5749 5752 5751 5752 5749 5745 5742 5741 5737 5743 5748 5758 5762 5765 5769 5771 5769 5769 5771 5769 5767 5769 5772 5772 5774 5773
5782 5776 5768 5760 5756 5754 5752 5750 5751 5749 5750 5749 5742 5740 5741 5742 5744 5747 5751 5755 5758 5764 5768 5770 5767 5769 5771 5768 5768 5770 5772 5774 5774
5777 5774 5765 5759 5752 5749 5751 5750 5749 5748 5748 5745 5744 5742 5743 5745 5748 5749 5748 5749 5750 5759 5765 5765 5763 5764 5770 5770 5772 5770 5771 5773 5773
5777 5769 5763 5757 5753 5746 5746 5748 5747 5742 5741 5742 5744 5745 5743 5745 5746 5745 5743 5746 5748 5755 5758 5757 5762 5763 5764 5766 5771 5768 5770 5770 5768
5770 5766 5761 5756 5753 5747 5742 5744 5744 5739 5736 5736 5736 5739 5741 5741 5741 5739 5738 5740 5743 5748 5753 5750 5751 5753 5760 5764 5764 5763 5766 5764 5764
5771 5763 5755 5753 5749 5746 5742 5737 5737 5735 5733 5730 5732 5735 5735 5733 5732 5731 5734 5737 5739 5741 5744 5751 5747 5745 5750 5749 5751 5757 5761 5758 5761
5764 5756 5750 5749 5739 5737 5738 5735 5729 5724 5726 5728 5729 5726 5723 5723 5725 5727 5730 5730 5733 5734 5735 5737 5739 5739 5740 5742 5746 5750 5752 5753 5750
5757 5751 5746 5743 5736 5725 5726 5730 5727 5719 5719 5722 5722 5720 5716 5715 5718 5717 5718 5719 5722 5724 5726 5727 5728 5729 5729 5731 5734 5736 5739 5743 5743
5751 5744 5738 5738 5731 5721 5715 5716 5720 5719 5717 5720 5721 5717 5713 5712 5709 5707 5706 5707 5708 5709 5711 5714 5715 5717 5717 5718 5721 5724 5726 5730 5731
5742 5740 5737 5735 5728 5721 5715 5711 5707 5710 5712 5709 5706 5709 5710 5707 5701 5698 5695 5691 5690 5695 5696 5697 5704 5705 5705 5705 5708 5710 5711 5716 5716
5736 5735 5732 5727 5724 5719 5712 5707 5704 5702 5704 5704 5700 5698 5699 5698 5695 5694 5692 5690 5687 5685 5685 5687 5690 5693 5695 5694 5695 5696 5697 5701 5701
5735 5733 5728 5724 5722 5720 5713 5705 5700 5695 5697 5698 5696 5692 5690 5688 5686 5683 5682 5682 5681 5679 5676 5676 5677 5677 5679 5678 5680 5682 5684 5685 5687